Probability
8 6 5 4 5 7 8 6 4 3 1 1 2 2 1 0 0 0 0 0 0 0 0 0 0 0 0 0 0 0 0 0 0 0 0 0 1 1
7 5 4 5 6 9 10 8 6 4 2 3 3 2 2 1 0 0 0 0 0 0 0 0 0 0 0 0 0 0 0 0 0 0 0 0 0 1
5 6 7 9 10 12 12 11 9 6 5 5 4 3 2 2 1 1 1 0 0 0 0 0 0 0 0 0 0 0 0 0 0 0 0 0 0 0
7 10 12 14 15 14 13 12 11 9 8 7 6 4 3 3 3 2 2 1 0 0 0 0 0 0 0 0 0 0 0 0 0 0 0 0 0 0
12 16 18 18 18 16 12 11 12 12 11 10 7 4 3 3 3 2 1 1 0 0 0 0 0 0 0 0 0 0 0 0 0 0 0 0 0 0
15 18 19 17 17 14 10 10 13 14 14 13 9 5 3 2 2 1 0 0 0 0 1 1 1 1 0 0 0 0 0 0 0 0 0 0 0 0
14 16 16 14 11 8 6 7 10 13 14 13 10 8 5 3 2 1 0 0 0 0 1 2 2 2 1 1 0 0 0 0 0 0 0 0 0 0
14 14 13 11 7 4 3 3 5 8 10 9 9 9 7 5 3 2 1 1 0 0 1 2 3 4 3 2 1 0 0 0 0 0 0 0 0 0
15 15 14 10 7 5 4 3 2 3 5 6 6 7 8 7 5 3 2 2 1 1 2 2 3 4 4 3 1 0 0 0 0 0 0 0 0 0
16 15 13 9 6 6 5 4 4 3 3 3 3 5 6 6 4 3 3 3 2 2 4 4 4 5 5 4 2 0 0 0 0 0 0 0 0 0
15 13 11 8 5 4 5 5 4 3 3 2 2 3 4 3 2 2 3 3 3 3 5 6 6 6 6 5 4 2 1 0 0 0 0 0 0 0
13 11 8 6 4 3 4 5 4 3 3 3 2 2 3 3 2 3 4 4 3 3 4 6 6 6 6 6 6 5 4 2 1 0 0 0 0 0
13 10 7 3 1 1 2 4 3 3 3 3 3 3 4 5 6 6 7 6 5 4 4 6 6 6 6 6 6 6 6 5 4 2 1 0 0 0
11 9 4 1 0 0 0 1 1 1 3 3 3 3 5 7 8 8 8 7 7 6 5 5 6 6 6 6 6 6 6 6 6 5 3 1 1 0
8 5 2 0 0 0 0 0 0 1 2 3 3 3 4 6 7 7 7 7 7 6 5 5 6 6 6 6 6 6 6 6 6 6 5 4 2 1
4 3 1 0 0 0 0 0 0 1 2 3 3 3 3 4 4 5 6 6 5 4 5 6 6 6 6 6 6 6 6 6 6 6 6 5 4 2
3 3 2 1 0 1 2 1 1 0 1 2 3 3 3 2 3 3 4 4 2 1 3 4 5 5 5 6 6 6 6 6 6 6 6 5 5 4
3 4 4 2 1 2 2 2 1 1 1 1 2 2 1 1 1 1 2 2 1 0 1 1 2 2 3 3 4 3 3 3 4 4 3 3 3 2
2 4 4 3 2 1 1 1 1 1 1 1 1 1 0 0 0 0 0 0 0 0 0 0 0 1 1 1 2 1 1 1 2 2 1 1 1 0
1 2 3 3 2 1 0 0 0 0 0 0 0 0 0 0 0 0 0 0 0 0 0 0 0 1 0 0 1 1 0 0 1 1 0 0 0 0
1 1 1 2 2 1 0 0 0 0 0 0 0 0 0 0 0 0 0 0 0 0 0 0 0 0 0 0 1 1 0 0 0 0 0 0 0 0
1 2 1 1 1 1 0 0 0 0 0 0 0 0 0 0 0 0 0 0 0 0 0 0 0 0 0 0 1 1 0 0 0 0 0 0 0 0
3 3 2 1 1 0 0 0 0 0 0 0 0 0 0 0 0 0 0 0 0 0 0 0 0 0 0 0 0 0 0 0 0 0 0 0 0 0
Wind_Speed
2 2 2 2 2 2 2 3 3 3 1 2 2 1 1 2 2 2 3 6 5 4 4 4 4 4 4 4 3 3 2 1 1 1 2 2 3 3
1 1 2 2 1 2 2 3 3 3 1 1 1 2 1 2 3 2 4 7 7 5 5 4 4 4 4 4 4 4 4 4 3 2 2 1 0 1
1 1 2 2 2 2 2 2 2 2 2 1 2 3 2 2 2 2 3 3 5 7 6 5 5 5 5 5 5 5 5 5 5 4 3 2 1 1
2 1 2 1 1 2 1 2 1 1 2 2 2 2 2 2 2 1 2 3 4 8 7 6 6 6 6 6 6 6 6 6 6 5 5 4 3 2
2 1 1 1 1 0 1 1 1 1 1 2 2 2 2 2 2 2 3 1 2 6 7 7 6 6 6 6 6 6 6 6 6 6 5 5 4 3
2 2 2 1 1 1 1 1 1 1 1 2 2 2 2 2 2 1 2 2 1 2 3 4 6 6 6 6 6 5 5 4 4 5 5 5 4 4
2 2 3 4 6 4 3 2 1 1 1 1 2 2 1 1 1 1 1 1 2 1 0 1 2 2 3 4 4 5 4 4 4 4 4 4 4 3
1 1 2 3 4 5 5 6 5 3 2 1 0 1 1 1 1 1 1 1 0 1 1 1 0 1 1 2 5 5 4 4 4 4 4 3 3 3
2 2 1 3 2 3 4 3 3 4 4 3 2 2 1 0 1 2 1 1 2 1 1 1 1 1 1 5 7 4 3 3 3 3 3 3 2 2
2 2 2 3 4 3 2 3 4 4 4 2 2 2 3 2 1 2 1 1 0 1 1 2 1 1 0 3 7 5 3 2 1 1 1 1 1 1
3 3 3 3 4 3 2 3 3 3 5 5 5 4 4 3 2 1 1 2 1 0 0 3 2 1 1 1 5 8 6 5 3 2 1 1 2 3
3 4 5 4 5 4 2 2 2 2 3 3 3 2 2 2 1 1 2 2 2 1 1 2 2 2 2 1 1 3 4 6 6 5 4 2 3 4
2 3 4 7 5 4 3 2 2 2 1 1 2 2 1 1 1 1 2 3 3 2 2 2 3 3 3 2 1 1 1 1 2 3 5 4 3 5
3 3 5 6 5 4 3 3 2 2 0 1 1 1 2 2 2 2 2 2 3 3 3 4 3 4 4 4 2 1 1 2 2 2 2 4 5 5
4 6 5 4 3 3 3 1 1 1 1 1 1 1 2 2 2 1 1 1 1 0 1 3 4 4 5 4 3 2 2 2 2 3 3 2 2 2
4 5 5 3 2 2 2 1 1 2 2 2 2 2 2 1 1 1 1 1 1 0 1 1 3 4 4 4 3 3 3 3 2 3 4 4 3 2
2 2 2 2 2 2 1 2 1 1 1 1 1 1 1 1 2 2 2 2 2 2 2 1 2 3 4 4 3 3 4 4 3 3 4 4 3 3
1 1 2 1 1 2 1 1 1 1 1 1 1 1 1 2 2 2 2 3 3 3 3 3 3 3 3 1 1 4 4 4 3 3 4 4 4 3
1 1 1 1 1 1 1 1 2 2 2 1 1 2 2 2 1 1 2 2 2 3 3 3 3 4 5 4 1 2 4 4 4 3 3 4 4 3
1 1 1 1 1 1 1 2 2 2 1 1 1 2 2 2 2 2 2 3 3 3 3 3 3 4 5 6 4 2 2 4 4 4 4 4 4 2
1 1 1 1 1 2 2 1 1 1 2 2 1 2 2 2 2 3 2 2 4 4 4 4 3 4 5 4 4 3 1 2 2 4 5 5 5 4
1 1 1 1 1 1 1 1 1 1 1 2 2 2 2 2 2 3 3 4 3 4 5 4 4 4 4 4 5 4 3 2 3 5 3 3 5 5
1 1 1 1 1 1 1 2 2 2 2 2 2 2 2 2 3 3 3 4 4 4 5 5 5 4 4 4 5 4 4 4 3 2 2 5 7 6
Wind_Direction
256 243 262 274 277 283 267 254 260 256 217 159 159 130 148 111 105 109 96 90 89 84 87 87 78 68 60 57 48 42 45 37 18 276 245 233 223 217
278 301 289 281 281 277 270 259 258 268 274 126 119 119 88 112 107 108 105 114 93 81 75 78 76 73 69 63 59 55 52 50 49 46 49 58 149 198
263 250 271 301 288 274 263 263 259 253 235 143 108 103 101 97 108 125 120 114 98 87 81 78 74 71 68 68 64 61 60 57 51 45 42 50 72 122
294 292 286 275 261 291 286 268 258 260 230 170 141 133 126 132 123 132 101 97 100 99 95 84 80 78 77 75 71 65 59 56 54 52 52 52 57 54
329 315 306 319 292 338 299 283 255 211 213 183 154 132 136 132 134 122 102 86 96 121 122 108 92 84 80 77 72 67 61 57 55 54 51 51 52 48
17 17 18 14 11 326 285 299 287 229 187 190 151 145 142 146 164 162 140 136 89 79 91 109 118 117 101 87 75 66 61 57 55 54 52 48 49 47
50 51 60 56 43 21 4 7 346 284 226 201 164 149 146 171 197 220 169 153 122 43 29 112 138 135 135 119 92 72 64 57 57 56 56 54 51 48
45 55 96 97 86 75 52 38 23 350 327 300 155 173 189 203 226 233 217 251 236 79 303 334 24 39 86 82 90 92 83 72 65 59 57 59 59 55
32 24 22 67 82 92 102 114 73 46 17 333 346 328 305 227 236 238 238 286 327 40 299 316 7 355 68 94 104 104 97 88 74 64 64 64 51 29
56 40 45 57 42 34 74 76 68 54 32 14 9 354 6 357 259 245 239 199 172 98 318 293 288 297 47 120 133 135 131 124 106 84 74 67 50 4
74 62 62 77 46 35 81 81 74 82 87 71 49 47 44 28 345 295 263 255 273 153 325 290 291 291 252 189 148 162 167 169 176 186 208 259 281 263
104 97 75 54 55 44 79 86 74 47 52 83 86 98 98 95 129 293 287 280 299 313 57 285 284 291 271 217 185 176 184 177 186 193 202 235 286 269
97 84 72 67 61 41 22 45 36 328 40 74 88 84 87 79 62 34 342 317 315 323 357 305 301 295 287 287 253 249 277 269 214 198 198 208 242 274
66 73 83 89 79 57 44 32 352 301 34 58 51 43 34 38 47 40 35 5 349 345 347 322 312 306 295 292 299 295 278 285 291 290 273 198 215 226
69 68 78 101 114 96 77 38 322 347 8 18 16 20 24 29 20 51 125 149 194 24 25 324 315 308 297 300 308 313 302 300 301 302 296 289 276 262
110 111 124 120 115 93 110 119 52 21 346 360 14 16 18 21 357 351 330 316 309 89 94 320 309 302 292 296 300 308 309 302 304 304 300 288 281 277
104 121 104 97 95 84 68 46 27 14 4 17 16 15 8 8 8 359 338 324 332 341 347 335 312 296 288 298 304 316 310 305 309 310 287 284 284 281
108 118 97 74 53 44 39 50 51 28 3 9 9 358 357 5 10 0 347 341 340 341 338 336 326 305 274 178 306 305 302 303 307 294 283 289 297 308
121 87 73 50 33 30 17 15 20 31 9 3 0 351 348 346 344 341 340 335 334 332 326 322 322 315 306 303 218 260 299 304 303 302 304 302 300 310
95 84 67 41 32 15 10 12 10 10 4 351 348 345 334 323 322 320 334 339 326 320 316 317 332 323 310 312 316 305 239 297 307 305 305 299 304 305
80 58 30 29 23 16 4 354 346 346 345 323 342 340 334 332 331 322 325 328 306 313 317 324 335 293 287 293 296 311 317 217 266 293 304 303 308 304
59 52 37 26 14 358 331 320 319 325 316 313 336 330 334 330 323 316 323 321 316 318 317 317 315 300 293 293 294 302 311 310 231 220 249 283 306 305
60 50 31 11 14 339 325 314 315 328 333 331 328 322 318 311 306 306 309 313 317 318 313 313 316 310 306 300 299 305 313 308 304 287 242 207 220 245